SCP
0 0 0 0 0 0 0 0 0 0 0 0 0 0 0 0 0 0 0 0 0 0 -0 0 0 0 0 0 0 0 0 0 0 0 0 0 0 0 0 0 0 0 0 0
0 0 0 0 0 0 0 0 -0 0 -0 0 0 0 0 0 0 0 0 0 0 0 0 0 0 0 0 0 0 0 0 0 0 0 0 -0 -0 -0 -0 -0 -0 0 0 0
0 0 0 0 0 -0 0 0 0 0 0 0 0 0 0 0 0 0 0 0 0 0 0 0 0 0 0 0 0 0 0 0 0 0 0 0 0 0 0 0 0 0 0 0
0 0 0 0 0 0 0 0 -0 0 0 0 0 0 0 0 0 0 0 0 0 -0 0 0 -0 0 0 -0 -0 0 0 0 0 0 0 0 0 0 0 -0 -0 0 -0 -0
0 0 0 0 0 0 0 0 -0 0 0 0 0 0 0 0 0 0 0 0 0 0 0 0 0 0 -0 -0 0 0 0 0 0 0 0 0 0 0 0 -0 -0 -0 0 0
0 -0 0 0 0 0 0 0 0 0 0 0 0 0 0 0 0 0 0 -0 -0 -0 -0 -0 -0 -0 -0 -0 -0 0 0 0 0 0 0 0 0 0 0 0 0 0 -0 -0
-0 0 -0 0 0 0 -0 0 0 0 0 0 0 0 0 0 0 0 -0 -0 -0 -0 -0 -0 -0 -0 -0 -0 -0 -0 0 0 0 0 0 0 0 0 -0 -0 -0 -0 0 0
0 0 0 -0 -0 -0 -0 -0 0 0 0 -0 0 0 0 0 0 0 0 0 0 0 0 -0 -0 -0 -0 -0 -0 -0 -0 -0 -0 -0 0 0 0 -0 -0 0 0 0 0 0
-0 0 0 -0 -0 -0 -0 -0 -0 0 0 -0 -0 -0 -0 0 0 0 0 0 0 0 0 0 0 0 0 -0 -0 0 0 0 0 0 -0 0 0 0 0 0 0 0 0 0
0 0 0 0 0 0 -0 -0 -0 -0 -0 -0 -0 -0 -0 -0 -0 0 0 0 0 0 0 0 0 0 0 0 0 0 0 0 0 0 0 0 0 0 0 0 0 0 0 0
0 0 0 0 0 0 0 -0 -0 -0 -0 -0 -0 -0 -0 -0 -0 -0 0 0 0 0 0 0 0 0 0 0 0 0 0 0 0 0 0 0 0 0 0 0 0 0 0 0
0 0 0 -0 -0 -0 0 0 0 0 0 0 -0 -0 -0 -0 0 0 0 0 0 0 0 0 0 0 0 0 0 0 0 0 0 0 0 0 0 0 0 0 0 0 0 0
0 0 0 0 0 -0 -0 -0 0 0 0 0 0 0 0 0 0 0 0 0 0 0 0 0 0 0 0 0 0 0 0 0 0 0 0 0 0 0 0 0 0 0 0 0
0 0 0 0 0 0 0 0 0 0 0 0 0 0 0 0 0 0 0 0 0 0 0 0 0 0 0 0 0 0 0 0 0 0 0 0 0 0 0 0 0 0 0 0
0 0 0 0 0 0 0 0 0 0 0 0 0 0 0 0 0 0 0 0 0 0 0 0 0 0 0 0 0 0 0 0 0 0 0 0 0 0 0 0 0 0 0 0
0 0 0 0 0 0 0 0 0 0 0 0 0 0 0 0 0 0 0 0 0 0 0 0 0 0 0 0 0 0 0 0 0 0 0 0 0 0 0 0 0 0 0 0
0 0 0 0 0 0 0 0 0 0 0 0 0 0 0 0 0 0 0 0 0 0 0 0 0 0 0 0 0 0 0 0 0 0 0 0 0 0 0 0 0 0 0 0
0 0 0 0 0 0 0 0 0 0 0 0 0 0 0 0 0 0 0 0 0 0 0 0 0 0 0 0 0 0 0 0 0 0 0 0 0 0 0 0 0 0 0 0
0 0 0 0 0 0 0 0 0 0 0 0 0 0 0 0 0 0 0 0 0 0 0 0 0 0 0 0 0 0 0 0 0 0 0 0 0 0 0 0 0 0 0 0
0 0 0 0 0 0 0 0 0 0 0 0 0 0 0 0 0 0 0 0 0 0 0 0 0 0 0 0 0 0 0 0 0 0 0 0 0 0 0 0 0 0 0 0
0 0 0 0 0 0 0 0 0 0 0 0 0 0 0 0 0 0 0 0 0 0 0 0 0 0 0 0 0 0 0 0 0 0 0 0 0 0 0 0 0 0 0 0
0 0 0 0 0 0 0 0 0 0 0 0 0 0 0 0 0 0 0 0 0 0 0 0 0 0 0 0 0 0 0 0 0 0 0 0 0 0 0 0 0 0 0 0
0 0 0 0 0 0 0 0 0 0 0 0 0 0 0 0 0 0 0 0 0 0 0 0 0 0 0 0 0 0 0 0 0 0 0 0 0 0 0 0 0 0 0 0
0 0 0 0 0 0 0 0 0 0 0 0 0 0 0 0 0 0 0 0 0 0 0 0 0 0 0 0 0 0 0 0 0 0 0 0 0 0 0 0 0 0 0 0
0 0 0 0 0 0 0 0 0 0 0 0 0 0 0 0 0 0 0 0 0 0 0 0 0 0 0 0 0 0 0 0 0 0 0 0 0 0 0 0 0 0 0 0
0 0 0 0 0 0 0 0 0 0 0 0 0 0 0 0 0 0 0 0 0 0 0 0 0 0 0 0 0 0 0 0 0 0 0 0 0 0 0 0 0 0 0 0
0 0 0 0 0 0 0 0 0 0 0 0 0 0 0 0 0 0 0 0 0 0 0 0 0 0 0 0 0 0 0 0 0 0 0 0 0 0 0 0 0 0 0 0
Wind_Speed_500mb
15 13 5 13 10 26 27 10 12 1 10 30 22 11 11 14 11 10 9 7 7 9 13 15 17 18 18 19 22 27 33 41 50 57 62 66 69 72 72 71 70 70 70 70
9 4 6 11 20 22 27 23 28 28 35 2 1 8 10 10 7 7 5 3 4 8 13 17 20 22 23 27 33 39 47 50 53 57 61 64 66 67 66 67 70 67 65 64
8 1 12 13 14 27 14 16 11 12 3 6 5 10 10 9 9 8 6 6 11 16 23 22 24 27 32 37 40 50 55 54 57 59 59 58 62 63 64 63 59 60 60 57
9 7 7 2 6 6 13 13 34 10 7 8 3 6 8 8 10 10 13 18 20 20 25 26 30 35 38 42 45 46 49 49 51 52 55 56 57 56 55 53 50 49 49 48
6 8 14 4 9 13 12 11 35 27 12 12 11 3 11 16 17 20 22 23 24 27 30 30 29 29 30 30 32 33 39 42 42 44 44 45 46 46 44 42 40 39 38 36
2 7 7 1 8 13 6 7 14 30 22 17 20 5 4 30 30 31 30 30 29 29 29 28 27 27 28 30 30 33 33 35 36 35 36 36 36 36 35 34 33 32 30 28
15 9 16 4 17 19 1 8 15 41 40 42 15 5 25 43 42 37 35 33 31 28 27 27 27 27 27 27 27 29 30 30 29 28 28 28 28 27 27 26 24 23 22 21
9 11 14 18 14 11 4 4 19 38 54 59 36 21 46 47 48 46 42 39 35 33 33 32 31 30 30 30 29 27 27 26 24 22 22 21 20 19 19 17 16 15 13 12
16 10 2 44 10 24 5 4 15 43 50 57 47 35 53 54 51 47 44 41 40 38 37 38 37 36 32 29 28 26 24 22 20 19 18 18 17 15 14 12 11 9 8 5
5 6 23 46 58 59 30 19 10 28 39 55 53 41 54 53 55 54 54 52 49 47 45 43 41 39 36 33 31 29 28 26 24 22 19 18 17 17 15 13 10 7 6 7
14 28 37 53 53 47 58 50 31 24 39 53 57 49 57 59 62 60 58 56 55 53 51 48 45 42 39 35 33 30 28 26 24 23 22 22 21 19 19 18 17 16 16 17
16 21 14 12 13 17 25 52 60 39 44 50 57 57 56 62 63 63 64 62 61 57 54 51 49 45 42 40 37 36 36 35 32 31 30 29 28 27 26 25 25 25 24 25
41 30 29 41 36 35 33 33 44 63 46 54 57 60 56 58 61 63 64 66 66 62 56 56 53 50 47 45 43 42 39 37 36 35 35 34 34 34 35 34 35 34 33 31
64 61 49 66 47 31 20 23 31 49 58 47 53 59 60 56 57 64 71 68 64 62 60 58 57 54 50 48 47 45 43 42 42 41 42 42 44 44 44 44 44 42 41 41
74 72 70 57 39 27 31 31 30 40 64 61 55 61 67 70 67 67 64 63 63 64 64 63 64 59 54 53 52 50 50 50 48 48 49 50 50 51 53 54 55 54 53 52
29 41 56 70 70 63 57 51 43 45 51 67 65 63 67 68 67 62 62 63 71 73 66 65 65 58 57 58 58 58 57 56 55 56 58 58 57 60 61 63 64 65 66 63
41 40 40 41 44 54 62 63 60 48 38 46 66 63 61 66 69 72 67 67 68 67 64 64 61 59 59 61 63 63 62 62 62 64 66 66 68 69 69 71 74 75 77 73
60 57 52 45 39 36 39 47 60 62 57 44 39 57 64 67 70 69 68 66 65 69 68 64 63 63 62 64 66 68 69 68 70 72 72 75 76 76 78 81 83 85 83 83
47 58 60 57 53 44 36 28 25 37 52 54 52 46 53 65 63 65 66 68 71 73 67 64 64 65 67 69 70 73 75 76 77 78 78 79 82 83 85 88 90 91 92 92
17 23 31 40 50 51 48 40 37 36 30 36 48 49 46 49 60 63 64 70 67 67 64 62 64 67 67 69 71 74 78 81 82 84 84 84 86 88 88 89 92 93 95 97
22 21 22 23 26 36 46 51 53 52 45 38 38 47 42 37 39 52 62 67 62 61 63 61 61 59 59 62 66 71 76 80 85 87 88 90 90 91 90 91 92 95 97 96
21 22 20 18 19 18 21 24 26 28 33 25 21 29 34 35 35 38 45 52 52 51 53 56 58 57 58 61 64 65 67 73 77 80 82 85 86 86 87 89 90 88 86 86
16 16 14 11 8 4 3 4 6 10 24 19 14 14 15 19 23 26 29 31 35 38 41 44 45 45 48 53 58 62 66 70 71 73 76 76 77 78 79 80 78 78 78 77
9 9 7 6 8 12 13 13 12 11 11 12 10 9 8 8 10 13 18 22 25 25 27 32 36 40 43 48 52 56 58 60 62 64 65 66 68 70 71 70 70 70 70 70
10 12 13 15 18 22 22 21 17 16 14 15 15 14 11 8 4 2 2 5 9 11 14 18 22 27 31 36 39 42 45 47 48 51 54 55 57 58 58 59 60 60 59 57
15 17 20 21 23 22 22 21 21 22 21 21 22 21 18 15 11 8 7 6 7 7 8 10 13 15 18 21 25 28 31 35 38 40 42 44 45 46 47 47 47 47 47 47
20 20 21 22 24 23 22 22 21 24 23 25 25 26 23 20 17 15 13 12 10 10 10 11 12 14 17 20 22 25 27 30 32 35 37 38 39 39 39 40 40 40 40 39
Wind_Direction_500mb
273 276 228 258 221 196 207 245 233 10 264 297 316 302 316 308 324 330 344 347 339 6 21 33 34 45 56 74 92 103 109 112 112 115 115 114 114 113 112 112 111 106 103 99
275 102 211 271 233 210 225 250 260 276 285 310 22 291 282 283 269 245 230 222 52 60 68 68 69 74 85 94 101 106 107 104 106 109 110 108 106 103 99 99 101 108 110 111
275 251 298 267 217 182 187 205 200 206 206 163 241 248 267 247 240 240 207 138 118 106 97 89 89 92 98 101 106 107 106 108 108 107 109 110 109 110 110 110 111 111 110 110
290 306 259 9 55 169 218 223 213 263 226 186 202 194 241 232 198 185 162 148 137 125 114 109 111 111 113 115 120 119 120 119 120 121 120 120 118 115 114 114 115 113 111 109
284 288 301 200 188 172 185 284 204 202 173 185 189 204 255 209 186 169 162 147 133 121 115 114 110 111 115 118 117 114 111 113 115 116 118 117 116 116 116 116 115 114 111 108
228 270 268 304 155 179 178 284 166 173 170 163 170 206 198 187 175 161 150 140 133 132 132 129 132 134 135 134 132 128 123 121 123 123 122 121 121 121 120 120 119 115 114 111
220 270 280 137 148 162 223 254 164 180 174 163 192 233 169 168 168 162 156 155 153 149 147 149 152 152 149 146 142 138 133 131 131 131 129 126 125 123 119 116 111 106 99 96
186 228 278 143 129 197 200 143 179 179 188 189 194 185 171 173 173 174 171 169 167 166 168 169 169 168 164 161 157 153 149 146 146 147 146 142 133 126 125 125 123 120 119 121
214 226 146 196 269 233 282 217 194 192 198 200 199 193 182 184 186 185 183 181 180 182 183 182 180 178 177 174 172 170 168 167 168 169 167 164 162 164 162 159 158 161 162 150
323 232 245 242 250 251 256 253 250 204 204 198 201 202 192 192 193 194 192 191 190 192 194 193 191 188 186 186 187 188 188 189 191 194 197 200 202 204 206 209 217 230 243 255
257 277 274 265 256 258 256 245 246 226 208 206 203 205 203 201 201 202 202 201 200 200 200 199 200 199 199 198 199 203 207 211 214 218 222 225 229 234 238 241 244 250 256 261
246 242 250 286 296 312 267 241 237 233 216 207 211 212 210 212 209 208 208 209 209 209 209 207 208 207 208 209 210 213 217 220 223 227 231 236 240 243 249 254 255 259 261 264
246 263 270 271 282 288 275 256 256 236 236 221 213 216 217 218 217 216 216 217 217 217 216 215 216 215 215 216 219 222 226 230 235 240 245 250 256 259 261 260 261 264 268 272
254 254 271 270 268 264 264 269 269 235 230 235 227 222 222 223 222 222 222 223 222 222 222 223 225 226 224 226 228 230 233 238 243 247 251 255 258 261 264 268 271 272 275 279
260 262 261 260 263 269 265 265 257 235 224 229 232 229 225 224 226 228 228 228 229 229 228 227 230 231 230 233 237 239 241 244 248 252 256 259 263 266 269 272 276 279 279 279
269 257 255 249 254 256 259 260 254 246 237 232 234 233 231 230 232 235 233 232 231 233 234 233 236 236 236 238 241 243 245 248 252 255 259 262 265 268 271 275 278 279 280 281
258 259 255 257 258 260 255 254 248 250 257 248 240 237 235 234 233 233 234 236 238 241 242 243 246 244 243 244 247 250 252 254 258 259 261 265 267 269 273 275 277 279 281 283
260 258 261 269 275 276 275 262 253 248 250 255 251 241 240 238 238 239 238 239 241 243 243 244 244 245 245 246 249 252 255 258 260 262 264 265 268 271 272 274 276 278 281 283
255 256 254 253 252 256 263 263 258 250 247 247 248 246 244 241 244 246 245 243 243 246 247 248 247 247 247 249 250 252 254 256 258 261 263 266 268 270 272 275 277 279 282 283
300 280 266 256 250 250 249 246 254 268 272 255 239 238 242 241 238 242 246 248 249 254 256 255 255 254 252 251 252 254 258 260 261 263 265 267 269 271 274 276 278 281 283 284
303 296 280 268 258 255 255 257 260 260 251 253 251 240 243 248 247 243 244 248 249 251 255 255 255 257 258 257 255 256 258 260 263 264 266 269 271 273 275 278 280 282 285 288
301 297 290 282 276 269 265 261 257 256 231 238 239 230 235 244 248 249 249 255 260 260 259 260 258 257 258 258 258 257 258 259 262 265 267 269 271 275 277 280 282 286 287 288
308 305 310 315 312 311 289 246 232 209 204 219 227 226 229 238 247 254 259 261 264 261 257 257 256 252 250 251 254 255 256 260 264 269 271 273 275 277 279 282 285 287 290 292
349 355 11 49 73 83 95 105 105 122 151 167 182 188 197 214 235 256 264 266 271 272 265 261 261 259 257 258 260 264 267 270 272 274 276 277 277 278 281 284 287 288 289 291
54 57 73 84 90 97 106 108 110 107 107 113 112 110 107 109 115 103 333 301 297 296 288 284 280 276 275 274 273 275 275 275 276 278 280 282 284 284 284 285 288 290 291 293
86 87 92 99 104 109 111 112 113 105 98 94 92 87 82 76 69 57 40 15 351 336 321 311 302 296 292 289 287 285 286 288 288 288 288 288 288 290 291 292 294 295 296 296
109 107 104 105 106 104 108 112 110 101 93 86 83 81 77 73 68 61 52 41 26 12 360 344 330 321 314 310 307 306 305 303 302 302 302 301 300 300 299 299 299 299 298 298
Wind_Speed_850mb
15 13 5 13 10 26 27 10 12 1 10 30 22 11 11 14 11 10 9 7 7 9 13 15 17 18 18 19 22 27 33 41 50 57 62 66 69 72 72 71 70 70 70 70
9 4 6 11 20 22 27 23 28 28 35 2 1 8 10 10 7 7 5 3 4 8 13 17 20 22 23 27 33 39 47 50 53 57 61 64 66 67 66 67 70 67 65 64
8 1 12 13 14 27 14 16 11 12 3 6 5 10 10 9 9 8 6 6 11 16 23 22 24 27 32 37 40 50 55 54 57 59 59 58 62 63 64 63 59 60 60 57
9 7 7 2 6 6 13 13 34 10 7 8 3 6 8 8 10 10 13 18 20 20 25 26 30 35 38 42 45 46 49 49 51 52 55 56 57 56 55 53 50 49 49 48
6 8 14 4 9 13 12 11 35 27 12 12 11 3 11 16 17 20 22 23 24 27 30 30 29 29 30 30 32 33 39 42 42 44 44 45 46 46 44 42 40 39 38 36
2 7 7 1 8 13 6 7 14 30 22 17 20 5 4 30 30 31 30 30 29 29 29 28 27 27 28 30 30 33 33 35 36 35 36 36 36 36 35 34 33 32 30 28
15 9 16 4 17 19 1 8 15 41 40 42 15 5 25 43 42 37 35 33 31 28 27 27 27 27 27 27 27 29 30 30 29 28 28 28 28 27 27 26 24 23 22 21
9 11 14 18 14 11 4 4 19 38 54 59 36 21 46 47 48 46 42 39 35 33 33 32 31 30 30 30 29 27 27 26 24 22 22 21 20 19 19 17 16 15 13 12
16 10 2 44 10 24 5 4 15 43 50 57 47 35 53 54 51 47 44 41 40 38 37 38 37 36 32 29 28 26 24 22 20 19 18 18 17 15 14 12 11 9 8 5
5 6 23 46 58 59 30 19 10 28 39 55 53 41 54 53 55 54 54 52 49 47 45 43 41 39 36 33 31 29 28 26 24 22 19 18 17 17 15 13 10 7 6 7
14 28 37 53 53 47 58 50 31 24 39 53 57 49 57 59 62 60 58 56 55 53 51 48 45 42 39 35 33 30 28 26 24 23 22 22 21 19 19 18 17 16 16 17
16 21 14 12 13 17 25 52 60 39 44 50 57 57 56 62 63 63 64 62 61 57 54 51 49 45 42 40 37 36 36 35 32 31 30 29 28 27 26 25 25 25 24 25
41 30 29 41 36 35 33 33 44 63 46 54 57 60 56 58 61 63 64 66 66 62 56 56 53 50 47 45 43 42 39 37 36 35 35 34 34 34 35 34 35 34 33 31
64 61 49 66 47 31 20 23 31 49 58 47 53 59 60 56 57 64 71 68 64 62 60 58 57 54 50 48 47 45 43 42 42 41 42 42 44 44 44 44 44 42 41 41
74 72 70 57 39 27 31 31 30 40 64 61 55 61 67 70 67 67 64 63 63 64 64 63 64 59 54 53 52 50 50 50 48 48 49 50 50 51 53 54 55 54 53 52
29 41 56 70 70 63 57 51 43 45 51 67 65 63 67 68 67 62 62 63 71 73 66 65 65 58 57 58 58 58 57 56 55 56 58 58 57 60 61 63 64 65 66 63
41 40 40 41 44 54 62 63 60 48 38 46 66 63 61 66 69 72 67 67 68 67 64 64 61 59 59 61 63 63 62 62 62 64 66 66 68 69 69 71 74 75 77 73
60 57 52 45 39 36 39 47 60 62 57 44 39 57 64 67 70 69 68 66 65 69 68 64 63 63 62 64 66 68 69 68 70 72 72 75 76 76 78 81 83 85 83 83
47 58 60 57 53 44 36 28 25 37 52 54 52 46 53 65 63 65 66 68 71 73 67 64 64 65 67 69 70 73 75 76 77 78 78 79 82 83 85 88 90 91 92 92
17 23 31 40 50 51 48 40 37 36 30 36 48 49 46 49 60 63 64 70 67 67 64 62 64 67 67 69 71 74 78 81 82 84 84 84 86 88 88 89 92 93 95 97
22 21 22 23 26 36 46 51 53 52 45 38 38 47 42 37 39 52 62 67 62 61 63 61 61 59 59 62 66 71 76 80 85 87 88 90 90 91 90 91 92 95 97 96
21 22 20 18 19 18 21 24 26 28 33 25 21 29 34 35 35 38 45 52 52 51 53 56 58 57 58 61 64 65 67 73 77 80 82 85 86 86 87 89 90 88 86 86
16 16 14 11 8 4 3 4 6 10 24 19 14 14 15 19 23 26 29 31 35 38 41 44 45 45 48 53 58 62 66 70 71 73 76 76 77 78 79 80 78 78 78 77
9 9 7 6 8 12 13 13 12 11 11 12 10 9 8 8 10 13 18 22 25 25 27 32 36 40 43 48 52 56 58 60 62 64 65 66 68 70 71 70 70 70 70 70
10 12 13 15 18 22 22 21 17 16 14 15 15 14 11 8 4 2 2 5 9 11 14 18 22 27 31 36 39 42 45 47 48 51 54 55 57 58 58 59 60 60 59 57
15 17 20 21 23 22 22 21 21 22 21 21 22 21 18 15 11 8 7 6 7 7 8 10 13 15 18 21 25 28 31 35 38 40 42 44 45 46 47 47 47 47 47 47
20 20 21 22 24 23 22 22 21 24 23 25 25 26 23 20 17 15 13 12 10 10 10 11 12 14 17 20 22 25 27 30 32 35 37 38 39 39 39 40 40 40 40 39
Wind_Direction_850mb
273 276 228 258 221 196 207 245 233 10 264 297 316 302 316 308 324 330 344 347 339 6 21 33 34 45 56 74 92 103 109 112 112 115 115 114 114 113 112 112 111 106 103 99
275 102 211 271 233 210 225 250 260 276 285 310 22 291 282 283 269 245 230 222 52 60 68 68 69 74 85 94 101 106 107 104 106 109 110 108 106 103 99 99 101 108 110 111
275 251 298 267 217 182 187 205 200 206 206 163 241 248 267 247 240 240 207 138 118 106 97 89 89 92 98 101 106 107 106 108 108 107 109 110 109 110 110 110 111 111 110 110
290 306 259 9 55 169 218 223 213 263 226 186 202 194 241 232 198 185 162 148 137 125 114 109 111 111 113 115 120 119 120 119 120 121 120 120 118 115 114 114 115 113 111 109
284 288 301 200 188 172 185 284 204 202 173 185 189 204 255 209 186 169 162 147 133 121 115 114 110 111 115 118 117 114 111 113 115 116 118 117 116 116 116 116 115 114 111 108
228 270 268 304 155 179 178 284 166 173 170 163 170 206 198 187 175 161 150 140 133 132 132 129 132 134 135 134 132 128 123 121 123 123 122 121 121 121 120 120 119 115 114 111
220 270 280 137 148 162 223 254 164 180 174 163 192 233 169 168 168 162 156 155 153 149 147 149 152 152 149 146 142 138 133 131 131 131 129 126 125 123 119 116 111 106 99 96
186 228 278 143 129 197 200 143 179 179 188 189 194 185 171 173 173 174 171 169 167 166 168 169 169 168 164 161 157 153 149 146 146 147 146 142 133 126 125 125 123 120 119 121
214 226 146 196 269 233 282 217 194 192 198 200 199 193 182 184 186 185 183 181 180 182 183 182 180 178 177 174 172 170 168 167 168 169 167 164 162 164 162 159 158 161 162 150
323 232 245 242 250 251 256 253 250 204 204 198 201 202 192 192 193 194 192 191 190 192 194 193 191 188 186 186 187 188 188 189 191 194 197 200 202 204 206 209 217 230 243 255
257 277 274 265 256 258 256 245 246 226 208 206 203 205 203 201 201 202 202 201 200 200 200 199 200 199 199 198 199 203 207 211 214 218 222 225 229 234 238 241 244 250 256 261
246 242 250 286 296 312 267 241 237 233 216 207 211 212 210 212 209 208 208 209 209 209 209 207 208 207 208 209 210 213 217 220 223 227 231 236 240 243 249 254 255 259 261 264
246 263 270 271 282 288 275 256 256 236 236 221 213 216 217 218 217 216 216 217 217 217 216 215 216 215 215 216 219 222 226 230 235 240 245 250 256 259 261 260 261 264 268 272
254 254 271 270 268 264 264 269 269 235 230 235 227 222 222 223 222 222 222 223 222 222 222 223 225 226 224 226 228 230 233 238 243 247 251 255 258 261 264 268 271 272 275 279
260 262 261 260 263 269 265 265 257 235 224 229 232 229 225 224 226 228 228 228 229 229 228 227 230 231 230 233 237 239 241 244 248 252 256 259 263 266 269 272 276 279 279 279
269 257 255 249 254 256 259 260 254 246 237 232 234 233 231 230 232 235 233 232 231 233 234 233 236 236 236 238 241 243 245 248 252 255 259 262 265 268 271 275 278 279 280 281
258 259 255 257 258 260 255 254 248 250 257 248 240 237 235 234 233 233 234 236 238 241 242 243 246 244 243 244 247 250 252 254 258 259 261 265 267 269 273 275 277 279 281 283
260 258 261 269 275 276 275 262 253 248 250 255 251 241 240 238 238 239 238 239 241 243 243 244 244 245 245 246 249 252 255 258 260 262 264 265 268 271 272 274 276 278 281 283
255 256 254 253 252 256 263 263 258 250 247 247 248 246 244 241 244 246 245 243 243 246 247 248 247 247 247 249 250 252 254 256 258 261 263 266 268 270 272 275 277 279 282 283
300 280 266 256 250 250 249 246 254 268 272 255 239 238 242 241 238 242 246 248 249 254 256 255 255 254 252 251 252 254 258 260 261 263 265 267 269 271 274 276 278 281 283 284
303 296 280 268 258 255 255 257 260 260 251 253 251 240 243 248 247 243 244 248 249 251 255 255 255 257 258 257 255 256 258 260 263 264 266 269 271 273 275 278 280 282 285 288
301 297 290 282 276 269 265 261 257 256 231 238 239 230 235 244 248 249 249 255 260 260 259 260 258 257 258 258 258 257 258 259 262 265 267 269 271 275 277 280 282 286 287 288
308 305 310 315 312 311 289 246 232 209 204 219 227 226 229 238 247 254 259 261 264 261 257 257 256 252 250 251 254 255 256 260 264 269 271 273 275 277 279 282 285 287 290 292
349 355 11 49 73 83 95 105 105 122 151 167 182 188 197 214 235 256 264 266 271 272 265 261 261 259 257 258 260 264 267 270 272 274 276 277 277 278 281 284 287 288 289 291
54 57 73 84 90 97 106 108 110 107 107 113 112 110 107 109 115 103 333 301 297 296 288 284 280 276 275 274 273 275 275 275 276 278 280 282 284 284 284 285 288 290 291 293
86 87 92 99 104 109 111 112 113 105 98 94 92 87 82 76 69 57 40 15 351 336 321 311 302 296 292 289 287 285 286 288 288 288 288 288 288 290 291 292 294 295 296 296
109 107 104 105 106 104 108 112 110 101 93 86 83 81 77 73 68 61 52 41 26 12 360 344 330 321 314 310 307 306 305 303 302 302 302 301 300 300 299 299 299 299 298 298